Meath Environmental Platform

Observations for Trim Market St

Time AQI Temp °C Hum % Pres Pa CO μg/m³ H₂S μg/m³ NO μg/m³ NO₂ μg/m³ O₃ μg/m³ SO₂ μg/m³ PM1 μg/m³ PM2.5 μg/m³ PM10 μg/m³
Thursday 16 July 2026
12:31 1 36.5 30 66,612 0 0 0 0 27.83 0.41 8.55 15.22 20.45
12:30 1 36.6 30 66,623 0 0 0 2.63 36.64 0.19 7.84 13.59 17.86
12:27 1 36.7 30 66,604 0.04 0 0 0 23.62 1.4 9.26 13.6 18.73
12:26 1 36.7 31 66,604 2.5 12.02 0 1.98 42.9 4.61 9.26 14.66 19.57
12:25 1 36.7 30 66,604 0 0 0 0 37.41 1.92 8.55 14.68 19.59
12:24 1 36.6 30 66,635 0 0 0 0 34.76 0.12 8.55 15.77 21.32
12:22 1 36.5 30 66,606 0 0 0 0 27.11 0 7.13 13.6 18.73
12:21 1 36.4 31 66,584 0 0 0 0 32.3 0 9.26 15.21 20.44
12:16 1 36.6 30 66,596 0 0 0 0 34.16 0.89 7.13 14.15 18.75
12:14 1 36.8 31 66,608 0 0 0 0 18.06 0.19 8.55 12.5 16.13
12:13 1 36.9 31 66,612 0 0 0 4.32 30.54 0 9.26 15.74 23
12:12 1 36.9 31 66,612 0 0 0 6.13 15.63 0 7.84 14.66 19.57
12:03 1 36.7 31 66,554 0 0 0 4.23 16.54 0 7.84 14.62 20.38
12:02 1 36.6 31 66,539 0 0 0 0.93 37.48 0 7.84 14.61 22.93
12:01 1 36.5 32 66,521 0 0 0 0 30.25 0 9.98 15.68 22.92
12:00 1 36.3 32 66,499 0 0 0 8.28 48.93 0 9.26 14.59 19.49
11:59 1 36.1 32 66,497 0 0 0 0 19.69 0 7.84 15.09 24.55
11:58 1 35.9 32 66,476 0 0 0 0 34.55 0 9.26 15.62 21.14
11:57 1 35.7 33 66,447 0 0 0 0.13 29.68 0 7.13 13.98 18.55
11:56 1 35.5 33 66,437 0 0 0 13.27 27.46 0 9.98 15.59 22.79